TimeCDT,TemperatureF,Dew PointF,Humidity,Sea Level PressureIn,VisibilityMPH,Wind Direction,Wind SpeedMPH,Gust SpeedMPH,PrecipitationIn,Events,Conditions,WindDirDegrees,DateUTC
12:13 AM,35.6,28.4,75,30.34,10.0,Calm,Calm,-,N/A,,Clear,0,2013-05-24 05:13:00
12:33 AM,35.6,28.4,75,30.34,10.0,Calm,Calm,-,N/A,,Clear,0,2013-05-24 05:33:00
12:53 AM,33.8,28.4,81,30.34,10.0,Calm,Calm,-,N/A,,Clear,0,2013-05-24 05:53:00
1:13 AM,33.8,26.6,75,30.34,10.0,Calm,Calm,-,N/A,,Clear,0,2013-05-24 06:13:00
1:33 AM,33.8,28.4,81,30.34,10.0,Calm,Calm,-,N/A,,Clear,0,2013-05-24 06:33:00
1:53 AM,32.0,28.4,87,30.34,10.0,Calm,Calm,-,N/A,,Clear,0,2013-05-24 06:53:00
2:13 AM,33.8,28.4,81,30.33,10.0,Calm,Calm,-,N/A,,Clear,0,2013-05-24 07:13:00
2:33 AM,32.0,28.4,87,30.33,10.0,Calm,Calm,-,N/A,,Clear,0,2013-05-24 07:33:00
2:53 AM,30.2,28.4,93,30.34,10.0,Calm,Calm,-,N/A,,Clear,0,2013-05-24 07:53:00
3:13 AM,30.2,26.6,86,30.33,10.0,Calm,Calm,-,N/A,,Clear,0,2013-05-24 08:13:00
3:33 AM,30.2,26.6,86,30.33,10.0,Calm,Calm,-,N/A,,Clear,0,2013-05-24 08:33:00
3:53 AM,30.2,28.4,93,30.33,10.0,Calm,Calm,-,N/A,,Clear,0,2013-05-24 08:53:00
4:13 AM,30.2,26.6,86,30.33,10.0,Calm,Calm,-,N/A,,Clear,0,2013-05-24 09:13:00
4:33 AM,30.2,28.4,93,30.34,10.0,Calm,Calm,-,N/A,,Clear,0,2013-05-24 09:33:00
4:53 AM,30.2,26.6,86,30.33,10.0,Calm,Calm,-,N/A,,Clear,0,2013-05-24 09:53:00
5:13 AM,32.0,28.4,87,30.33,10.0,SE,3.5,-,N/A,,Clear,140,2013-05-24 10:13:00
5:33 AM,32.0,28.4,87,30.33,10.0,Calm,Calm,-,N/A,,Clear,0,2013-05-24 10:33:00
5:53 AM,32.0,28.4,87,30.34,10.0,Calm,Calm,-,N/A,,Clear,0,2013-05-24 10:53:00
6:13 AM,33.8,30.2,87,30.34,10.0,Calm,Calm,-,N/A,,Clear,0,2013-05-24 11:13:00
6:33 AM,37.4,30.2,75,30.35,10.0,Calm,Calm,-,N/A,,Clear,0,2013-05-24 11:33:00
6:53 AM,39.2,33.8,81,30.35,10.0,Calm,Calm,-,N/A,,Clear,0,2013-05-24 11:53:00
7:13 AM,44.6,35.6,71,30.36,10.0,SSW,4.6,-,N/A,,Clear,200,2013-05-24 12:13:00
7:33 AM,46.4,35.6,66,30.36,10.0,South,5.8,-,N/A,,Clear,190,2013-05-24 12:33:00
7:53 AM,50.0,33.8,54,30.36,10.0,SSW,8.1,-,N/A,,Clear,200,2013-05-24 12:53:00
8:13 AM,51.8,32.0,47,30.36,10.0,SSW,13.8,-,N/A,,Clear,200,2013-05-24 13:13:00
8:33 AM,53.6,32.0,44,30.36,10.0,SSW,15.0,19.6,N/A,,Clear,200,2013-05-24 13:33:00
8:53 AM,53.6,32.0,44,30.36,10.0,SSW,13.8,-,N/A,,Clear,200,2013-05-24 13:53:00
9:13 AM,55.4,32.0,41,30.36,10.0,South,12.7,-,N/A,,Clear,190,2013-05-24 14:13:00
9:33 AM,57.2,32.0,38,30.35,10.0,South,11.5,-,N/A,,Clear,190,2013-05-24 14:33:00
9:53 AM,57.2,30.2,36,30.35,10.0,SW,9.2,-,N/A,,Clear,220,2013-05-24 14:53:00
10:13 AM,60.8,32.0,34,30.34,10.0,South,5.8,-,N/A,,Clear,190,2013-05-24 15:13:00
10:33 AM,60.8,30.2,31,30.34,10.0,SSW,10.4,-,N/A,,Clear,200,2013-05-24 15:33:00
10:53 AM,60.8,30.2,31,30.33,10.0,SW,10.4,-,N/A,,Clear,220,2013-05-24 15:53:00
11:13 AM,62.6,30.2,30,30.33,10.0,South,6.9,-,N/A,,Clear,170,2013-05-24 16:13:00
11:33 AM,64.4,32.0,30,30.32,10.0,South,6.9,-,N/A,,Clear,180,2013-05-24 16:33:00
11:53 AM,64.4,32.0,30,30.32,10.0,South,10.4,-,N/A,,Clear,190,2013-05-24 16:53:00
12:13 PM,64.4,30.2,28,30.31,10.0,South,4.6,-,N/A,,Clear,190,2013-05-24 17:13:00
12:33 PM,66.2,28.4,24,30.31,10.0,SE,6.9,-,N/A,,Clear,140,2013-05-24 17:33:00
12:53 PM,64.4,30.2,28,30.30,10.0,South,3.5,-,N/A,,Clear,180,2013-05-24 17:53:00
1:13 PM,64.4,30.2,28,30.30,10.0,South,9.2,-,N/A,,Clear,170,2013-05-24 18:13:00
1:33 PM,66.2,30.2,26,30.29,10.0,SSW,15.0,-,N/A,,Clear,210,2013-05-24 18:33:00
1:53 PM,68.0,32.0,26,30.29,10.0,South,5.8,-,N/A,,Clear,170,2013-05-24 18:53:00
2:13 PM,66.2,30.2,26,30.27,10.0,SSW,8.1,-,N/A,,Clear,200,2013-05-24 19:13:00
2:33 PM,68.0,32.0,26,30.26,10.0,South,9.2,-,N/A,,Clear,180,2013-05-24 19:33:00
2:53 PM,68.0,28.4,23,30.25,10.0,Calm,Calm,-,N/A,,Clear,0,2013-05-24 19:53:00
3:13 PM,66.2,28.4,24,30.24,10.0,Calm,Calm,-,N/A,,Clear,0,2013-05-24 20:13:00
3:33 PM,69.8,32.0,25,30.24,10.0,SSE,8.1,-,N/A,,Clear,160,2013-05-24 20:33:00
3:53 PM,68.0,28.4,23,30.23,10.0,SSE,3.5,-,N/A,,Clear,150,2013-05-24 20:53:00
4:13 PM,69.8,28.4,21,30.23,10.0,SW,11.5,-,N/A,,Clear,220,2013-05-24 21:13:00
4:33 PM,66.2,30.2,26,30.24,10.0,SSW,11.5,-,N/A,,Clear,200,2013-05-24 21:33:00
4:53 PM,69.8,32.0,25,30.24,10.0,South,10.4,-,N/A,,Clear,180,2013-05-24 21:53:00
5:13 PM,69.8,32.0,25,30.24,10.0,SSW,10.4,16.1,N/A,,Clear,210,2013-05-24 22:13:00
5:33 PM,66.2,28.4,24,30.24,10.0,South,5.8,9.2,N/A,,Clear,180,2013-05-24 22:33:00
5:53 PM,68.0,28.4,23,30.23,10.0,SSE,6.9,-,N/A,,Clear,160,2013-05-24 22:53:00
6:19 PM,66.2,30.2,26,30.22,10.0,South,8.1,-,N/A,,Clear,180,2013-05-24 23:19:00
6:33 PM,66.2,30.2,26,30.22,10.0,South,6.9,-,N/A,,Clear,190,2013-05-24 23:33:00
6:53 PM,66.2,30.2,26,30.22,10.0,South,12.7,-,N/A,,Clear,190,2013-05-24 23:53:00
7:13 PM,64.4,30.2,28,30.22,10.0,South,6.9,-,N/A,,Clear,170,2013-05-25 00:13:00
7:33 PM,64.4,30.2,28,30.22,10.0,SSE,4.6,-,N/A,,Clear,160,2013-05-25 00:33:00
7:53 PM,62.6,32.0,32,30.22,10.0,South,3.5,-,N/A,,Clear,180,2013-05-25 00:53:00
8:13 PM,60.8,33.8,36,30.23,10.0,South,3.5,-,N/A,,Clear,180,2013-05-25 01:13:00
8:33 PM,60.8,35.6,39,30.23,10.0,SSW,4.6,-,N/A,,Clear,210,2013-05-25 01:33:00
8:53 PM,60.8,30.2,31,30.23,10.0,SSW,6.9,-,N/A,,Clear,210,2013-05-25 01:53:00
9:13 PM,59.0,30.2,34,30.23,10.0,SSW,5.8,-,N/A,,Clear,200,2013-05-25 02:13:00
9:33 PM,57.2,33.8,41,30.23,10.0,Calm,Calm,-,N/A,,Clear,0,2013-05-25 02:33:00
9:53 PM,55.4,35.6,47,30.24,10.0,SSW,3.5,-,N/A,,Clear,200,2013-05-25 02:53:00
10:13 PM,55.4,37.4,51,30.25,10.0,SSW,3.5,-,N/A,,Clear,200,2013-05-25 03:13:00
10:33 PM,55.4,35.6,47,30.25,10.0,SSW,6.9,-,N/A,,Clear,200,2013-05-25 03:33:00
10:53 PM,57.2,33.8,41,30.25,10.0,South,6.9,-,N/A,,Scattered Clouds,190,2013-05-25 03:53:00
11:13 PM,57.2,33.8,41,30.24,10.0,South,3.5,-,N/A,,Scattered Clouds,180,2013-05-25 04:13:00
11:33 PM,57.2,33.8,41,30.24,10.0,SSW,6.9,-,N/A,,Clear,210,2013-05-25 04:33:00
11:53 PM,57.2,35.6,44,30.25,10.0,SSW,6.9,-,N/A,Rain,Light Rain,210,2013-05-25 04:53:00